Погода в Пограничном

Россия / Приморский край     44°24′28″N   131°22′44″E
темп.,
°C
ветер,
м/с
пор.,
м/с
влажн.,
%
обл.,
%
осадки,
мм/ч
давл.,
гПа
погр.,
м
3 марта, ср
ср301:00−17зюз11920 0.0 103020
04:00−17юз11910 0.0 102920
07:00−18юз119010 0.0 103021
10:00−13ююв238355 0.0 1028223
13:00−7ю3783100 0.0 1024511
16:00−1ю61279100 0.0 10211211
19:00−2ю41295100 0.6 1020681
22:00−4ююз3108999 0.8 1020288
4 марта, чт
чт401:00−5ююз389072 0.0 1019183
04:00−7ююз239136 0.0 101745
07:00−6ююз238791 0.0 101744
10:000ююз4117793 0.0 1017636
13:00+2ю389198 0.0 1016449
16:00+3ю399494 0.0 1014379
19:00−1ю129276 0.0 101326
22:00−3ююз238771 0.0 101432
5 марта, пт
пт501:00−2ююз26840 0.0 1014119
04:00−1зюз238411 0.0 101563
07:00−3зюз228777 0.0 101622
10:000зсз487988 0.0 1019769
13:00−2зсз5862100 0.0 10231171
16:00−5сз685984 0.0 10261539
19:00−10сз496544 0.1 10301135
22:00−14сз396833 0.1 10341116
6 марта, сб
сб601:00−16ссз39670 0.0 1036929
04:00−17сз310700 0.0 1038779
07:00−17зсз26730 0.0 1039316
10:00−13сз37560 0.0 1039941
13:00−9ссз35460 0.0 10381164
16:00−7ссз13430 0.0 10351264
19:00−10ю11700 0.0 103424
22:00−13з11810 0.0 103620
7 марта, вс
вс701:00−13зюз12790 0.0 103421
04:00−14з11780 0.0 103420
07:00−14зюз11810 0.0 103220
10:00−11ююз23699 0.0 1031222
13:00−5ю23580 0.0 1027443
16:00−1ю35560 0.0 1024462
19:00−6ююз12790 0.0 102325
22:00−6з39680 0.0 1025232